DateTimeUTC,F1_A11,F1_S11,BsB_S11,BsG_S11,BsR_S11,BbsB_S11,BbsG_S11,BbsR_S11,BaB_A11,BaG_A11,BaR_A11,Tu_S11,T_S11,Uu_S11,U_S11,P_S11,T1_A11
2021-10-10T12:00:00Z,00000200,21000000,,,,,,,0000.09,0000.13,-000.02,16.9,23.8,00.9,00.6,0671.9,30.9
2021-10-10T12:01:00Z,00000200,21000000,,,,,,,0000.31,0000.45,0000.23,16.9,23.8,00.9,00.6,0671.9,30.9
2021-10-10T12:02:00Z,00000200,21000000,,,,,,,0000.27,-000.01,0000.59,16.9,23.9,00.9,00.6,0671.9,30.9
2021-10-10T12:03:00Z,00000200,61000000,,,,,,,-000.04,0000.46,0000.05,17.0,23.9,00.9,00.6,0671.9,30.9
2021-10-10T12:04:00Z,00000200,41000000,0000.70,0000.50,0000.33,0000.25,0000.17,0000.13,0000.15,-000.25,0000.10,17.4,23.8,01.2,00.8,0672.8,30.9
2021-10-10T12:05:00Z,00000200,01000000,0000.42,0000.47,0000.26,0000.54,0000.11,0000.10,-000.27,-000.53,-000.51,17.5,23.8,01.1,00.8,0672.9,30.9
2021-10-10T12:06:00Z,00000200,01000000,0000.43,0000.11,0000.40,0000.81,0000.03,0000.04,-000.64,-000.16,-000.39,17.5,23.8,01.0,00.7,0672.9,30.9
2021-10-10T12:07:00Z,00000200,01000000,0000.01,0000.12,0000.27,0000.48,0000.26,-000.18,0000.13,-000.17,-000.13,17.5,23.9,00.9,00.6,0672.9,30.9
2021-10-10T12:08:00Z,00000200,01000000,-000.08,0000.10,0000.12,-000.31,-000.00,0000.09,-000.32,-000.38,-000.33,17.5,23.8,00.8,00.6,0672.9,30.9
2021-10-10T12:09:00Z,00000200,01000000,-000.56,0000.34,0000.13,0000.04,-000.15,-000.20,-000.29,-000.54,-000.18,17.5,23.8,00.8,00.6,0672.9,30.9
2021-10-10T12:10:00Z,00000200,01000000,0000.41,-000.16,0000.30,-000.16,-000.25,0000.28,-000.34,0000.04,-000.21,17.4,23.8,00.7,00.5,0672.9,30.9
2021-10-10T12:11:00Z,00000200,01000000,-000.42,0000.17,0000.13,0000.05,0000.33,0000.19,0000.20,0000.04,0000.51,17.4,23.7,00.7,00.5,0673.0,30.9
2021-10-10T12:12:00Z,00000200,01000000,0000.02,-000.30,0000.03,-000.19,0000.12,-000.21,0000.06,-000.05,-000.24,17.3,23.7,00.7,00.4,0673.0,30.9
2021-10-10T12:13:00Z,00000200,01000000,-000.62,0000.20,0000.09,-000.66,0000.09,0000.03,-000.34,0000.24,-000.07,17.3,23.7,00.8,00.5,0673.0,30.9
2021-10-10T12:14:00Z,00000200,01000000,0000.90,0000.02,0000.36,0000.34,-000.07,0000.21,0000.47,-000.03,-000.09,17.3,23.7,00.6,00.4,0673.0,30.9
2021-10-10T12:15:00Z,00000200,01000000,0000.19,-000.01,0000.09,0000.30,-000.16,0000.10,-000.23,0000.05,0000.80,17.4,23.7,00.7,00.5,0673.0,30.9
2021-10-10T12:16:00Z,00000200,01000000,0000.52,0000.33,0000.20,0000.47,-000.39,0000.31,0000.47,0000.06,0000.08,17.4,23.7,00.6,00.4,0673.2,30.9
2021-10-10T12:17:00Z,00000200,01000000,-000.14,-000.15,0000.62,-000.64,-000.22,0000.32,0000.06,0000.13,-000.39,17.5,23.8,00.6,00.4,0673.2,31.0
2021-10-10T12:18:00Z,00000200,01000000,0000.61,0000.12,0000.11,-000.16,0000.08,-000.17,-000.29,0000.12,-000.02,17.6,23.8,00.7,00.5,0673.2,31.0
2021-10-10T12:19:00Z,00000200,01000000,0000.16,0000.21,0000.19,-000.24,-000.32,0000.12,-000.06,0000.03,0000.09,17.7,23.9,00.5,00.4,0673.2,31.0
2021-10-10T12:20:00Z,00000200,01000000,0000.88,0000.28,0000.53,0000.91,-000.03,-000.09,-000.14,-000.56,-000.24,17.7,23.9,00.6,00.4,0673.2,31.0
2021-10-10T12:21:00Z,00000200,01000000,0000.88,0000.36,0000.29,-000.08,-000.03,-000.04,0000.26,0000.03,-000.11,17.7,23.9,00.5,00.4,0673.2,31.0
2021-10-10T12:22:00Z,00000200,01000000,-000.57,0000.11,0000.05,0000.06,-000.16,0000.16,-000.12,0000.14,-000.26,17.7,23.9,00.6,00.4,0673.2,30.9
2021-10-10T12:23:00Z,00000200,01000000,-000.04,-000.08,0000.13,0000.41,-000.06,0000.01,-000.05,-000.19,0000.34,17.6,23.9,00.7,00.5,0673.2,30.9
2021-10-10T12:24:00Z,00000200,01000000,-000.57,-000.14,0000.26,-000.20,0000.01,0000.01,0000.25,0000.29,0000.25,17.6,23.9,00.7,00.4,0673.2,30.9
2021-10-10T12:25:00Z,00000200,01000000,-000.37,-000.12,0000.39,0000.14,0000.04,0000.12,0000.00,0000.12,0000.03,17.5,23.8,00.7,00.5,0673.2,30.9
2021-10-10T12:26:00Z,00000200,01000000,-000.18,0000.08,0000.08,0000.25,-000.28,0000.25,-000.07,-000.05,-000.29,17.5,23.8,00.8,00.5,0673.2,31.0
2021-10-10T12:27:00Z,00000200,01000000,0000.25,0000.09,0000.13,0000.42,-000.06,0000.10,0000.26,0000.12,0000.42,17.4,23.8,00.9,00.6,0673.2,30.9
2021-10-10T12:28:00Z,00000200,01000000,0000.49,-000.07,-000.08,0000.07,0000.01,0000.10,-000.27,0000.24,-000.19,17.4,23.7,00.8,00.6,0673.2,30.9
2021-10-10T12:29:00Z,00000200,01000000,-000.29,0000.04,0000.19,0000.41,-000.03,0000.27,0000.30,-000.22,0000.14,17.4,23.8,00.8,00.5,0673.2,30.9
2021-10-10T12:30:00Z,00000200,01000000,0000.52,0000.32,0000.04,-000.40,-000.20,0000.11,0000.31,0000.47,0000.20,17.4,23.8,00.9,00.6,0673.2,30.9
2021-10-10T12:31:00Z,00000200,01000000,0000.02,0000.08,0000.18,-000.14,0000.01,0000.03,0000.23,0000.12,0000.02,17.5,23.8,00.8,00.5,0673.2,30.9
2021-10-10T12:32:00Z,00000200,01000000,0000.00,0000.38,0000.48,-000.44,0000.02,0000.36,-000.27,-000.08,0000.18,17.6,23.9,00.8,00.5,0673.2,30.9
2021-10-10T12:33:00Z,00000200,01000000,-000.36,0000.48,0000.12,-000.55,-000.03,-000.19,0000.36,0000.06,0000.20,17.6,23.9,00.6,00.4,0673.2,30.9
2021-10-10T12:34:00Z,00000200,01000000,0000.86,0000.49,0000.17,-000.16,0000.08,0000.08,-000.49,0000.25,-000.20,17.6,23.9,00.5,00.4,0673.2,30.9
2021-10-10T12:35:00Z,00000200,01000000,-000.19,0000.48,0000.01,0000.22,0000.06,0000.24,-000.07,-000.50,-000.24,17.6,23.9,00.6,00.4,0673.2,30.9
2021-10-10T12:36:00Z,00000200,01000000,0000.37,-000.03,0000.22,-000.03,-000.01,0000.28,0000.03,-000.12,-000.02,17.6,23.9,00.5,00.3,0673.2,30.9
2021-10-10T12:37:00Z,00000200,01000000,-000.03,0000.13,0000.08,-000.40,0000.18,0000.10,-000.32,-000.11,-000.09,17.5,23.8,00.6,00.4,0673.2,30.9
2021-10-10T12:38:00Z,00000200,01000000,0000.16,0000.17,-000.09,0000.01,-000.36,-000.02,0000.34,0000.12,0000.16,17.5,23.8,00.6,00.4,0673.1,30.9
2021-10-10T12:39:00Z,00000200,01000000,-000.52,0000.15,0000.39,-000.48,-000.18,0000.35,0000.10,0000.02,0000.08,17.4,23.8,00.6,00.4,0673.1,30.9
2021-10-10T12:40:00Z,00000200,01000000,-000.72,0000.21,0000.21,-000.30,0000.09,0000.16,0000.05,0000.19,-000.39,17.4,23.8,00.7,00.4,0673.1,30.9
2021-10-10T12:41:00Z,00000200,01000000,0000.67,0000.38,0000.26,-000.47,0000.16,0000.14,0000.39,-000.13,0000.24,17.4,23.7,00.5,00.3,0673.1,30.9
2021-10-10T12:42:00Z,00000200,01000000,-000.38,0000.25,0000.25,-000.50,-000.06,0000.01,-000.51,0000.29,0000.21,17.3,23.7,00.5,00.3,0673.1,30.9
2021-10-10T12:43:00Z,00000200,01000000,0000.26,0000.23,0000.19,0000.41,-000.06,-000.03,0000.10,0000.14,0000.38,17.3,23.7,00.5,00.3,0673.1,30.9
2021-10-10T12:44:00Z,00000200,01000000,0000.08,0000.20,0000.30,0000.06,-000.02,0000.38,0000.13,-000.05,-000.34,17.3,23.7,00.4,00.3,0673.1,30.9
2021-10-10T12:45:00Z,00000200,01000000,0000.07,0000.03,0000.32,-000.39,-000.09,0000.16,-000.25,0000.15,0000.35,17.4,23.7,00.3,00.2,0673.1,30.9
2021-10-10T12:46:00Z,00000200,01000000,-000.59,0000.10,0000.28,0000.04,-000.23,-000.02,-000.03,-000.50,-000.09,17.4,23.8,00.2,00.2,0673.1,30.9
2021-10-10T12:47:00Z,00000200,01000000,-000.22,0000.30,-000.00,0000.13,-000.00,0000.11,-000.25,-000.27,-000.31,17.5,23.8,00.1,00.1,0673.1,31.0
2021-10-10T12:48:00Z,00000200,01000000,-000.00,0000.29,0000.04,-000.29,0000.23,0000.29,0000.01,-000.02,-000.16,17.6,23.8,00.2,00.1,0673.1,31.0
2021-10-10T12:49:00Z,00000200,01000000,0000.06,-000.04,0000.10,0000.35,-000.04,0000.03,0000.08,0000.13,-000.24,17.6,23.9,00.1,00.1,0673.1,30.9
2021-10-10T12:50:00Z,00000200,01000000,-000.27,0000.15,0000.42,-000.01,0000.06,0000.09,-000.32,-000.61,0000.12,17.7,23.9,00.1,00.1,0673.1,31.0
2021-10-10T12:51:00Z,00000200,01000000,0000.21,-000.22,0000.05,-000.25,-000.09,0000.02,-000.52,0000.22,-000.37,17.6,23.9,00.1,00.0,0673.1,31.0
2021-10-10T12:52:00Z,00000200,01000000,0000.25,0000.15,0000.42,0000.03,-000.10,0000.47,0000.05,-000.23,0000.07,17.6,23.9,00.1,00.0,0673.1,30.9
2021-10-10T12:53:00Z,00000200,01000000,0000.75,-000.13,0000.19,-000.00,-000.23,0000.20,-000.15,-000.08,0000.05,17.6,23.9,00.1,00.1,0673.1,30.9
2021-10-10T12:54:00Z,00000200,01000000,0000.09,-000.11,0000.22,-000.26,0000.07,0000.31,0000.32,0000.18,0000.20,17.5,23.8,00.1,00.1,0673.1,30.9
2021-10-10T12:55:00Z,00000200,01000000,-000.20,0000.21,0000.11,-000.34,-000.19,0000.12,0000.58,0000.10,-000.35,17.5,23.8,00.1,00.1,0673.1,30.9
2021-10-10T12:56:00Z,00000200,01000000,-000.09,0000.09,0000.11,0000.22,0000.26,0000.51,-000.23,0000.46,0000.53,17.5,23.8,00.2,00.1,0673.1,30.9
2021-10-10T12:57:00Z,00000200,41000000,,,,,,,0000.38,-000.03,0000.38,17.5,23.8,,00.0,0673.1,30.9
2021-10-10T12:58:00Z,00000200,61000000,,,,,,,0000.25,0000.26,0000.01,17.2,23.9,,00.0,0672.1,30.9
2021-10-10T12:59:00Z,00000200,21000000,,,,,,,0000.13,0000.32,-000.10,17.1,24.0,,00.0,0672.1,30.9
